Welcome to the New NWS' Forecast!
Most changes are behind the scenes, but click here for differences you might notice.

Regional Weather Roundup (RWR)

Issued by Gray - Portland, ME (GYX)

                            
782 
ASUS41 KGYX 200405
RWRGYX
WEATHER ROUNDUP FOR MAINE AND NEW HAMPSHIRE
NATIONAL WEATHER SERVICE GRAY ME
1200 AM EDT THU SEP 20 2018

MEZ002-005-006-010-012-015-018-020-021-024-026-027-029-200500-
MAINE
  
CITY           SKY/WX    TMP DP  RH WIND       PRES   REMARKS
PORTLAND       CLOUDY    59  54  83 NE9       30.14R                  
SANFORD        FAIR      55  53  93 N6        30.14R                  
BAR HARBOR     CLOUDY    54  51  90 N8        30.15S                  
WISCASSET      CLOUDY    57  54  89 VRB3      30.16R                  
ROCKLAND       CLOUDY    56  55  97 NE7       30.14R                  
FRYEBURG       CLOUDY    58  51  78 E5        30.16R                  
LEWISTONAUBURN CLOUDY    57  53  86 NE8       30.16R                  
AUGUSTA        CLOUDY    56  53  90 NE5       30.16R                  
WATERVILLE     FAIR      56  52  86 NE7       30.14R                  
BANGOR         CLOUDY    56  49  77 NE10      30.18R                  
GREENVILLE       N/A     50  49  96 E9        30.15R                  
MILLINOCKET    CLOUDY    51  46  83 E6        30.21R                  
HOULTON        CLOUDY    43  43 100 SW3       30.19S                  
PRESQUE ISLE   CLOUDY    46  41  82 E3        30.22S                  
FRENCHVILLE    CLOUDY    47  42  83 E5        30.21S                  
CARIBOU        CLOUDY    49  42  77 NE5       30.21S                  
$$

NHZ002-005-008-009-011-012-014-200500-
NEW HAMPSHIRE
  
CITY           SKY/WX    TMP DP  RH WIND       PRES   REMARKS
ROCHESTER      CLOUDY    57  55  93 N5        30.13R                  
NASHUA         CLOUDY    60  57  89 NW5       30.13R                  
MANCHESTER     CLOUDY    60  56  86 N3        30.12R                  
CONCORD        CLOUDY    60  53  77 NE6       30.14R                  
LACONIA        CLOUDY    59  53  80 E7        30.14R                  
PLYMOUTH       CLOUDY    57  55  91 CALM      30.14R                  
BERLIN         CLOUDY    58  55  90 CALM      30.14S                  
WHITEFIELD     MOCLDY    55  52  89 CALM      30.14S                  
JAFFREY        CLOUDY    59  56  89 CALM      30.14R                  
KEENE          CLOUDY   N/A N/A N/A NE3       30.12R                  
LEBANON        FAIR      52  48  86 S5        30.14R                  
MT WASHINGTON  FOG       39  39 100 W7          N/A  VSB 1/16         
$$

VTZ005-007-008-200500-
VERMONT
  
CITY           SKY/WX    TMP DP  RH WIND       PRES   REMARKS
ST JOHNSBURY     N/A     53  51  93 MISG      30.12F                  
MONTPELIER     CLOUDY    54  51  90 N5        30.18S                  
BURLINGTON     CLOUDY    58  50  75 CALM      30.16R                  
$$

MAZ007-012-024-CTZ003-RIZ002-NYZ038-NYZ072-200500-
SOUTHERN NEW ENGLAND AND NY
  
CITY           SKY/WX    TMP DP  RH WIND       PRES   REMARKS
BOSTON         CLOUDY    62  55  77 N9        30.10R                  
WORCESTER      CLOUDY    56  54  93 NE6       30.13R                  
NANTUCKET      CLOUDY    62  58  86 N16G25    30.03R                  
PROVIDENCE     FAIR      59  55  87 N9        30.10R                  
HARTFORD       CLOUDY    63  58  83 E5        30.10R                  
ALBANY         CLOUDY    61  49  64 N10       30.13R                  
NEW YORK CITY  LGT RAIN  71  65  81 E9        30.06R                  
$$

ANZ081-ANZ082-ANZ150-NHZ014-MEZ023>029-200500-
COASTAL MARINE OBSERVATIONS
  
STATION/POSITION TIME  TEMP    WIND        PRES    WAVE
                       AIR SEA DIR/SP/G            HT/PER
                 (UTC) (F)     (DEG/KT/KT) (MB)    (FT/S)
MOUNT DESERT ROC 0400   55      30/ 26/ 29 1019.8R
MATINICUS ROCK   0300   57      50/ 19/ 23 1019.2R
ISLE OF SHOALS   0300   61      40/ 18/ 20 1018.7R
JEFFREYS LEDGE   0336      64                N/A     5/ 7
$$

.............KEY..............
   WCI - WIND CHILL
   TC  - TEMPERATURE IN CELSIUS
   VSB - VISIBILITY IN MILES
   HX  - HEAT INDEX
   FAIR- INDICATES FEW OR NO CLOUDS BELOW 12,000 FT, WITH NO 
         SIGNIFICANT WEATHER AND/OR OBSTRUCTIONS TO VISIBILITY.


  


000
ASUS41 KGYX 200405
RWRGYX
WEATHER ROUNDUP FOR MAINE AND NEW HAMPSHIRE
NATIONAL WEATHER SERVICE GRAY ME
1200 AM EDT THU SEP 20 2018

MEZ002-005-006-010-012-015-018-020-021-024-026-027-029-200500-
MAINE
  
CITY           SKY/WX    TMP DP  RH WIND       PRES   REMARKS
PORTLAND       CLOUDY    59  54  83 NE9       30.14R                  
SANFORD        FAIR      55  53  93 N6        30.14R                  
BAR HARBOR     CLOUDY    54  51  90 N8        30.15S                  
WISCASSET      CLOUDY    57  54  89 VRB3      30.16R                  
ROCKLAND       CLOUDY    56  55  97 NE7       30.14R                  
FRYEBURG       CLOUDY    58  51  78 E5        30.16R                  
LEWISTONAUBURN CLOUDY    57  53  86 NE8       30.16R                  
AUGUSTA        CLOUDY    56  53  90 NE5       30.16R                  
WATERVILLE     FAIR      56  52  86 NE7       30.14R                  
BANGOR         CLOUDY    56  49  77 NE10      30.18R                  
GREENVILLE       N/A     50  49  96 E9        30.15R                  
MILLINOCKET    CLOUDY    51  46  83 E6        30.21R                  
HOULTON        CLOUDY    43  43 100 SW3       30.19S                  
PRESQUE ISLE   CLOUDY    46  41  82 E3        30.22S                  
FRENCHVILLE    CLOUDY    47  42  83 E5        30.21S                  
CARIBOU        CLOUDY    49  42  77 NE5       30.21S                  
$$

NHZ002-005-008-009-011-012-014-200500-
NEW HAMPSHIRE
  
CITY           SKY/WX    TMP DP  RH WIND       PRES   REMARKS
ROCHESTER      CLOUDY    57  55  93 N5        30.13R                  
NASHUA         CLOUDY    60  57  89 NW5       30.13R                  
MANCHESTER     CLOUDY    60  56  86 N3        30.12R                  
CONCORD        CLOUDY    60  53  77 NE6       30.14R                  
LACONIA        CLOUDY    59  53  80 E7        30.14R                  
PLYMOUTH       CLOUDY    57  55  91 CALM      30.14R                  
BERLIN         CLOUDY    58  55  90 CALM      30.14S                  
WHITEFIELD     MOCLDY    55  52  89 CALM      30.14S                  
JAFFREY        CLOUDY    59  56  89 CALM      30.14R                  
KEENE          CLOUDY   N/A N/A N/A NE3       30.12R                  
LEBANON        FAIR      52  48  86 S5        30.14R                  
MT WASHINGTON  FOG       39  39 100 W7          N/A  VSB 1/16         
$$

VTZ005-007-008-200500-
VERMONT
  
CITY           SKY/WX    TMP DP  RH WIND       PRES   REMARKS
ST JOHNSBURY     N/A     53  51  93 MISG      30.12F                  
MONTPELIER     CLOUDY    54  51  90 N5        30.18S                  
BURLINGTON     CLOUDY    58  50  75 CALM      30.16R                  
$$

MAZ007-012-024-CTZ003-RIZ002-NYZ038-NYZ072-200500-
SOUTHERN NEW ENGLAND AND NY
  
CITY           SKY/WX    TMP DP  RH WIND       PRES   REMARKS
BOSTON         CLOUDY    62  55  77 N9        30.10R                  
WORCESTER      CLOUDY    56  54  93 NE6       30.13R                  
NANTUCKET      CLOUDY    62  58  86 N16G25    30.03R                  
PROVIDENCE     FAIR      59  55  87 N9        30.10R                  
HARTFORD       CLOUDY    63  58  83 E5        30.10R                  
ALBANY         CLOUDY    61  49  64 N10       30.13R                  
NEW YORK CITY  LGT RAIN  71  65  81 E9        30.06R                  
$$

ANZ081-ANZ082-ANZ150-NHZ014-MEZ023>029-200500-
COASTAL MARINE OBSERVATIONS
  
STATION/POSITION TIME  TEMP    WIND        PRES    WAVE
                       AIR SEA DIR/SP/G            HT/PER
                 (UTC) (F)     (DEG/KT/KT) (MB)    (FT/S)
MOUNT DESERT ROC 0400   55      30/ 26/ 29 1019.8R
MATINICUS ROCK   0300   57      50/ 19/ 23 1019.2R
ISLE OF SHOALS   0300   61      40/ 18/ 20 1018.7R
JEFFREYS LEDGE   0336      64                N/A     5/ 7
$$

.............KEY..............
   WCI - WIND CHILL
   TC  - TEMPERATURE IN CELSIUS
   VSB - VISIBILITY IN MILES
   HX  - HEAT INDEX
   FAIR- INDICATES FEW OR NO CLOUDS BELOW 12,000 FT, WITH NO 
         SIGNIFICANT WEATHER AND/OR OBSTRUCTIONS TO VISIBILITY.